CZ-2C R/B (28480 NORAD) Tracking and Keplerian Element Data

This shows tracking and keplerian element data for the satellite.

Feedback or suggestion? Click here.




ElementValue
Catalog28480
NameCZ-2C R/B
Epoch Orbit71059
Epoch Day198.87945602
Epoch Year2018
RAAN274.2324
Inclination98.1751
Eccentricity0.0142942
Argument of Perigee136.2473
Mean Anonmoly355.3651
Mean Motion14.25678685
Decay Rate-2E-08
L11 28480U 04046B 18198.87945602 -.00000002 00000-0 14084-4 0 9998
L22 28480 98.1751 274.2324 0142942 136.2473 355.3651 14.25678685710599

Live tracking and technical data element details for CZ-2C R/B (NORAD 28480). CZ-2C R/B can be tracked NOW for your location showing map with azimuth and elevation plus other details from your city location.

Track the satellite on the map from your city or location and see movement details for azimuth, elevation, latitude, longitude, range, height, and movement on the map or in text.







IsCatalogInMostPopularTable: catalog: 28480, numindb: 26
Update: records affected: 1



GetName: 28480 CZ-2C R/B

Hit Count: updated at: Thu, 19 Jul 2018 21:18:19 GMT